Previsão horária em Abdulino

Hoje, 17 Abril, Sábado

Tempo Temperatura Precipitação Vento Pressão Humidade
00:00 +11°C° 0 mm 4 m/s 750 mmHg 85%
01:00 +10°C° 0 mm 4 m/s 750 mmHg 90%
02:00 +8°C° 0 mm 4 m/s 750 mmHg 90%
03:00 +7°C° 0 mm 4 m/s 750 mmHg 90%
04:00 +7°C° 0 mm 4 m/s 750 mmHg 91%
05:00 +8°C° 0 mm 3 m/s 750 mmHg 89%
06:00 +8°C° 0 mm 3 m/s 751 mmHg 87%
07:00 +8°C° 0 mm 3 m/s 751 mmHg 86%
08:00 +10°C° 0 mm 3 m/s 751 mmHg 79%
09:00 +11°C° 0 mm 3 m/s 751 mmHg 73%
10:00 +13°C° 0 mm 4 m/s 751 mmHg 66%
11:00 +14°C° 0 mm 4 m/s 751 mmHg 62%
12:00 +15°C° 0 mm 4 m/s 750 mmHg 58%
13:00 +17°C° 0 mm 4 m/s 750 mmHg 54%
14:00 +17°C° 0 mm 4 m/s 750 mmHg 52%
15:00 +18°C° 0 mm 4 m/s 750 mmHg 51%
16:00 +18°C° 0 mm 4 m/s 750 mmHg 50%
17:00 +17°C° 0 mm 4 m/s 750 mmHg 53%
18:00 +15°C° 0 mm 4 m/s 750 mmHg 56%
19:00 +14°C° 0 mm 4 m/s 749 mmHg 58%
20:00 +13°C° 0 mm 4 m/s 750 mmHg 57%
21:00 +11°C° 0 mm 4 m/s 750 mmHg 57%
22:00 +10°C° 0 mm 4 m/s 750 mmHg 56%
23:00 +8°C° 0 mm 4 m/s 750 mmHg 57%

Amanhã, 18 Abril, Domingo

Tempo Temperatura Precipitação Vento Pressão Humidade
00:00 +7°C° 0 mm 4 m/s 750 mmHg 58%
01:00 +7°C° 0 mm 4 m/s 750 mmHg 59%
02:00 +6°C° 0 mm 4 m/s 750 mmHg 59%
03:00 +5°C° 0 mm 4 m/s 750 mmHg 59%
04:00 +5°C° 0 mm 4 m/s 750 mmHg 60%
05:00 +5°C° 0 mm 4 m/s 750 mmHg 60%
06:00 +5°C° 0 mm 4 m/s 750 mmHg 60%
07:00 +5°C° 0 mm 4 m/s 750 mmHg 61%
08:00 +6°C° 0 mm 4 m/s 750 mmHg 55%
09:00 +8°C° 0 mm 5 m/s 750 mmHg 49%
10:00 +9°C° 0 mm 6 m/s 750 mmHg 43%
11:00 +10°C° 0 mm 5 m/s 750 mmHg 40%
12:00 +12°C° 0 mm 5 m/s 750 mmHg 38%
13:00 +13°C° 0 mm 5 m/s 750 mmHg 35%
14:00 +13°C° 0 mm 5 m/s 750 mmHg 35%
15:00 +13°C° 0 mm 5 m/s 750 mmHg 35%
16:00 +14°C° 0 mm 5 m/s 750 mmHg 35%
17:00 +13°C° 0 mm 5 m/s 750 mmHg 39%
18:00 +12°C° 0 mm 5 m/s 750 mmHg 44%
19:00 +10°C° 0 mm 5 m/s 750 mmHg 48%
20:00 +9°C° 0 mm 6 m/s 750 mmHg 54%
21:00 +8°C° 0 mm 6 m/s 750 mmHg 59%
22:00 +5°C° 0 mm 6 m/s 751 mmHg 64%
23:00 +5°C° 0 mm 6 m/s 751 mmHg 67%

Depois de amanhã, 19 Abril, Segunda-feira

Tempo Temperatura Precipitação Vento Pressão Humidade
00:00 +4°C° 0 mm 7 m/s 751 mmHg 70%
01:00 +3°C° 0 mm 7 m/s 751 mmHg 74%
02:00 +3°C° 0 mm 6 m/s 751 mmHg 76%
03:00 +2°C° 0 mm 6 m/s 751 mmHg 79%
04:00 +2°C° 0 mm 6 m/s 752 mmHg 82%
05:00 +2°C° 0 mm 6 m/s 752 mmHg 77%
06:00 +2°C° 0 mm 6 m/s 752 mmHg 72%
07:00 +2°C° 0 mm 7 m/s 752 mmHg 67%
08:00 +2°C° 0 mm 7 m/s 753 mmHg 65%
09:00 +2°C° 0 mm 7 m/s 753 mmHg 63%
10:00 +2°C° 0 mm 7 m/s 753 mmHg 61%
11:00 +2°C° 0 mm 7 m/s 754 mmHg 61%
12:00 +3°C° 0 mm 7 m/s 754 mmHg 62%
13:00 +3°C° 0 mm 7 m/s 754 mmHg 62%
14:00 +3°C° 0 mm 7 m/s 754 mmHg 62%
15:00 +3°C° 0 mm 6 m/s 754 mmHg 62%
16:00 +3°C° 0 mm 6 m/s 755 mmHg 62%
17:00 +4°C° 0 mm 6 m/s 755 mmHg 59%
18:00 +5°C° 0 mm 5 m/s 755 mmHg 56%
19:00 +5°C° 0 mm 5 m/s 755 mmHg 52%
20:00 +3°C° 0 mm 5 m/s 755 mmHg 51%
21:00 +3°C° 0 mm 6 m/s 755 mmHg 50%
22:00 +2°C° 0 mm 6 m/s 756 mmHg 48%
23:00 +1°C° 0 mm 6 m/s 756 mmHg 49%

20 Abril, Terça-feira

Tempo Temperatura Precipitação Vento Pressão Humidade
00:00 +1°C° 0 mm 6 m/s 756 mmHg 49%
01:00 -1°C° 0 mm 6 m/s 756 mmHg 49%
02:00 -2°C° 0 mm 6 m/s 757 mmHg 50%
03:00 -2°C° 0 mm 6 m/s 757 mmHg 51%
04:00 -3°C° 0 mm 6 m/s 757 mmHg 52%
05:00 -3°C° 0 mm 6 m/s 758 mmHg 50%
06:00 -3°C° 0 mm 6 m/s 758 mmHg 47%
07:00 -2°C° 0 mm 6 m/s 758 mmHg 45%
08:00 -1°C° 0 mm 7 m/s 758 mmHg 40%
09:00 0°C° 0 mm 7 m/s 758 mmHg 36%
10:00 +2°C° 0 mm 7 m/s 758 mmHg 32%
11:00 +3°C° 0 mm 7 m/s 758 mmHg 30%
12:00 +4°C° 0 mm 6 m/s 758 mmHg 28%
13:00 +7°C° 0 mm 6 m/s 758 mmHg 26%
14:00 +7°C° 0 mm 6 m/s 758 mmHg 25%
15:00 +8°C° 0 mm 6 m/s 757 mmHg 25%
16:00 +8°C° 0 mm 6 m/s 757 mmHg 24%
17:00 +8°C° 0 mm 5 m/s 757 mmHg 28%
18:00 +7°C° 0 mm 5 m/s 757 mmHg 31%
19:00 +7°C° 0 mm 4 m/s 756 mmHg 34%
20:00 +6°C° 0 mm 4 m/s 757 mmHg 37%
21:00 +5°C° 0 mm 4 m/s 757 mmHg 41%
22:00 +4°C° 0 mm 4 m/s 757 mmHg 44%
23:00 +3°C° 0 mm 4 m/s 757 mmHg 45%

21 Abril, Quarta-feira

Tempo Temperatura Precipitação Vento Pressão Humidade
00:00 +2°C° 0 mm 5 m/s 757 mmHg 47%
01:00 +1°C° 0 mm 5 m/s 757 mmHg 48%
02:00 +1°C° 0 mm 5 m/s 757 mmHg 50%
03:00 0°C° 0 mm 5 m/s 757 mmHg 51%
04:00 -1°C° 0 mm 5 m/s 757 mmHg 52%
05:00 0°C° 0 mm 5 m/s 757 mmHg 51%
06:00 -1°C° 0 mm 6 m/s 757 mmHg 50%
07:00 -1°C° 0 mm 6 m/s 757 mmHg 49%
08:00 +2°C° 0 mm 7 m/s 757 mmHg 44%
09:00 +3°C° 0 mm 7 m/s 757 mmHg 38%
10:00 +5°C° 0 mm 8 m/s 757 mmHg 33%
11:00 +6°C° 0 mm 8 m/s 757 mmHg 31%
12:00 +9°C° 0 mm 8 m/s 756 mmHg 28%
13:00 +10°C° 0 mm 8 m/s 756 mmHg 26%
14:00 +11°C° 0 mm 8 m/s 756 mmHg 26%
15:00 +11°C° 0 mm 8 m/s 756 mmHg 25%
16:00 +12°C° 0 mm 7 m/s 756 mmHg 25%
17:00 +11°C° 0 mm 7 m/s 756 mmHg 29%
18:00 +10°C° 0 mm 6 m/s 756 mmHg 32%
19:00 +10°C° 0 mm 5 m/s 756 mmHg 35%
20:00 +9°C° 0 mm 5 m/s 756 mmHg 38%
21:00 +8°C° 0 mm 4 m/s 756 mmHg 41%
22:00 +7°C° 0 mm 4 m/s 756 mmHg 44%
23:00 +7°C° 0 mm 4 m/s 756 mmHg 46%

22 Abril, Quinta-feira

Tempo Temperatura Precipitação Vento Pressão Humidade
00:00 +6°C° 0 mm 5 m/s 756 mmHg 48%
01:00 +6°C° 0 mm 5 m/s 756 mmHg 50%
02:00 +5°C° 0 mm 5 m/s 756 mmHg 51%
03:00 +5°C° 0 mm 5 m/s 756 mmHg 52%
04:00 +5°C° 0 mm 5 m/s 756 mmHg 52%
05:00 +5°C° 0 mm 5 m/s 756 mmHg 52%
06:00 +5°C° 0 mm 5 m/s 757 mmHg 51%
07:00 +6°C° 0 mm 5 m/s 757 mmHg 51%
08:00 +5°C° 0 mm 6 m/s 757 mmHg 47%
09:00 +7°C° 0 mm 6 m/s 757 mmHg 44%
10:00 +8°C° 0 mm 7 m/s 757 mmHg 40%
11:00 +9°C° 0 mm 6 m/s 757 mmHg 39%
12:00 +9°C° 0 mm 6 m/s 757 mmHg 37%
13:00 +10°C° 0 mm 6 m/s 757 mmHg 36%
14:00 +10°C° 0 mm 5 m/s 757 mmHg 37%
15:00 +11°C° 0 mm 4 m/s 757 mmHg 39%
16:00 +11°C° 0 mm 3 m/s 757 mmHg 40%
17:00 +10°C° 0 mm 3 m/s 757 mmHg 42%
18:00 +10°C° 0 mm 2 m/s 757 mmHg 45%
19:00 +11°C° 0 mm 1 m/s 757 mmHg 47%
20:00 +10°C° 0 mm 1 m/s 757 mmHg 49%
21:00 +8°C° 0 mm 2 m/s 757 mmHg 51%
22:00 +8°C° 0 mm 2 m/s 756 mmHg 53%
23:00 +7°C° 0 mm 2 m/s 756 mmHg 57%
Mostrar mais

Necessitamos do seu Consentimento

A Meteoprog e os seus Fornecedores de Serviços podem armazenar e aceder a dados pessoais como cookies, identificadores do dispositivo ou outras tecnologias semelhantes existentes no seu dispositivo e processar estes dados para personalizar conteúdos e anúncios, assim como funcionalidades nas redes sociais e análise de tráfego.

  • Armazenar e/ou aceder a informações no seu dispositivo

    Os cookies, identificadores do dispositivo ou outras informações podem ser armazenados ou acedidos no seu dispositivo, para os fins acima indicados.

  • Anúncios e conteúdos personalizados, medição de anúncios e conteúdos, dados sobre o público-alvo e desenvolvimento de produtos

    Os anúncios e os conteúdos podem ser personalizados com base num perfil. Podem ser adicionados dados adicionais para uma maior personalização dos anúncios e dos conteúdos. A eficácia dos anúncios e dos conteúdos pode ser medida. Podem ser obtidas informações sobre o público que visualizou os anúncios e os conteúdos. Estes dados podem ser usados para desenvolver ou melhorar sistemas, softwares ou a experiência do utilizador.

Ao clicar em "Eu concordo”, permitirá o uso de cookies, identificadores do dispositivo e web beacons mencionados ou outras tecnologias semelhantes. As configurações do navegador do seu dispositivo podem ser alteradas.

Para certos fins, podem ser invocados interesses legítimos ao invés de consentimento. Pode ler mais informação sobre este assunto na nossa Política de Privacidade e Cookies.